TimeMST,TemperatureF,Dew PointF,Humidity,Sea Level PressureIn,VisibilityMPH,Wind Direction,Wind SpeedMPH,Gust SpeedMPH,PrecipitationIn,Events,Conditions,WindDirDegrees,DateUTC
12:58 AM,26.6,17.4,68,30.03,10.0,SE,6.9,-,N/A,,Clear,140,2013-02-17 07:58:00
1:58 AM,25.9,17.2,70,30.00,10.0,NE,2.3,-,N/A,,Clear,40,2013-02-17 08:58:00
2:58 AM,25.9,18.0,72,29.95,9.0,NNW,8.1,-,N/A,,Clear,330,2013-02-17 09:58:00
3:03 AM,24.8,17.6,74,29.93,3.0,NW,4.6,-,N/A,,Haze,310,2013-02-17 10:03:00
3:08 AM,23.0,17.6,80,29.93,2.0,North,3.5,-,N/A,,Haze,350,2013-02-17 10:08:00
3:18 AM,23.0,19.4,86,29.92,5.0,NNE,3.5,-,N/A,,Haze,20,2013-02-17 10:18:00
3:38 AM,24.8,19.4,80,29.93,4.0,North,8.1,-,N/A,,Haze,360,2013-02-17 10:38:00
3:58 AM,24.8,20.5,84,29.95,4.0,ENE,4.6,-,N/A,,Haze,70,2013-02-17 10:58:00
4:08 AM,24.8,19.4,80,29.90,6.0,SE,4.6,-,N/A,,Haze,140,2013-02-17 11:08:00
4:58 AM,27.3,17.4,66,29.92,10.0,NE,4.6,-,N/A,,Partly Cloudy,50,2013-02-17 11:58:00
5:44 AM,24.8,19.4,80,29.92,4.0,North,13.8,-,N/A,,Haze,350,2013-02-17 12:44:00
5:46 AM,24.8,19.4,80,29.92,1.8,North,16.1,-,N/A,,Haze,350,2013-02-17 12:46:00
5:51 AM,23.0,19.4,86,29.92,0.5,NNW,18.4,-,N/A,,Haze,340,2013-02-17 12:51:00
5:53 AM,23.0,19.4,86,29.92,0.2,NNW,16.1,-,N/A,Fog,Fog,340,2013-02-17 12:53:00
5:58 AM,23.4,18.7,82,29.97,0.2,NNW,11.5,-,0.00,Snow,Heavy Snow,340,2013-02-17 12:58:00
6:03 AM,23.0,17.6,80,29.92,0.2,North,9.2,-,N/A,Fog,Fog,360,2013-02-17 13:03:00
6:06 AM,23.0,19.4,86,29.92,0.2,North,9.2,-,N/A,,Haze,360,2013-02-17 13:06:00
6:07 AM,23.0,19.4,86,29.92,0.2,North,8.1,-,N/A,Fog,Light Freezing Drizzle,350,2013-02-17 13:07:00
6:22 AM,23.0,19.4,86,29.91,0.2,North,5.8,-,N/A,Fog,Light Freezing Drizzle,10,2013-02-17 13:22:00
6:27 AM,23.0,19.4,86,29.91,0.2,NNE,4.6,-,N/A,Fog,Light Freezing Drizzle,30,2013-02-17 13:27:00
6:32 AM,23.0,19.4,86,29.90,0.8,NE,4.6,-,N/A,,Light Freezing Drizzle,50,2013-02-17 13:32:00
6:37 AM,24.8,21.2,86,29.90,2.5,NE,4.6,-,N/A,,Light Freezing Drizzle,50,2013-02-17 13:37:00
6:42 AM,24.8,21.2,86,29.90,5.0,East,5.8,-,N/A,,Light Freezing Drizzle,80,2013-02-17 13:42:00
6:48 AM,24.8,21.2,86,29.90,6.0,East,5.8,-,N/A,,Clear,100,2013-02-17 13:48:00
6:58 AM,25.0,20.8,84,29.95,7.0,ENE,5.8,-,0.00,,Clear,70,2013-02-17 13:58:00
7:08 AM,24.8,19.4,80,29.90,4.0,Variable,2.3,-,N/A,,Haze,0,2013-02-17 14:08:00
7:48 AM,23.0,17.6,80,29.91,8.0,Calm,Calm,-,N/A,,Clear,0,2013-02-17 14:48:00
7:58 AM,23.4,16.5,75,29.97,9.0,South,4.6,-,N/A,,Clear,170,2013-02-17 14:58:00
8:28 AM,23.0,17.6,80,29.92,4.0,SSE,10.4,-,N/A,,Haze,160,2013-02-17 15:28:00
8:58 AM,24.6,18.7,78,29.99,4.0,South,8.1,-,N/A,,Haze,170,2013-02-17 15:58:00
9:13 AM,24.8,19.4,80,29.93,2.5,South,8.1,-,N/A,,Haze,170,2013-02-17 16:13:00
9:33 AM,23.0,19.4,86,29.93,1.8,South,6.9,-,N/A,,Haze,180,2013-02-17 16:33:00
9:43 AM,23.0,19.4,86,29.94,0.5,SSW,6.9,-,N/A,,Haze,200,2013-02-17 16:43:00
9:48 AM,23.0,19.4,86,29.94,0.2,South,5.8,-,N/A,,Haze,180,2013-02-17 16:48:00
9:53 AM,23.0,19.4,86,29.94,0.2,South,5.8,-,N/A,,Haze,180,2013-02-17 16:53:00
9:58 AM,23.9,20.1,85,30.01,0.2,SSE,4.6,-,N/A,Fog,Light Freezing Fog,160,2013-02-17 16:58:00
10:03 AM,24.8,21.2,86,29.94,0.2,SE,5.8,-,N/A,Fog,Light Freezing Fog,140,2013-02-17 17:03:00
10:08 AM,24.8,21.2,86,29.94,0.2,SSE,5.8,-,N/A,Fog,Light Freezing Fog,150,2013-02-17 17:08:00
10:13 AM,24.8,21.2,86,29.94,0.2,SE,4.6,-,N/A,Fog,Light Freezing Fog,140,2013-02-17 17:13:00
10:23 AM,24.8,21.2,86,29.94,0.2,SSE,4.6,-,N/A,Fog,Light Freezing Fog,150,2013-02-17 17:23:00
10:28 AM,24.8,21.2,86,29.94,0.5,SSE,5.8,-,N/A,Fog,Light Freezing Fog,150,2013-02-17 17:28:00
10:33 AM,24.8,23.0,93,29.93,1.5,SSE,6.9,-,N/A,,Scattered Clouds,150,2013-02-17 17:33:00
10:38 AM,26.6,23.0,86,29.93,2.5,South,4.6,-,N/A,,Scattered Clouds,170,2013-02-17 17:38:00
10:43 AM,26.6,23.0,86,29.93,3.0,South,4.6,-,N/A,,Mostly Cloudy,180,2013-02-17 17:43:00
10:53 AM,26.6,21.2,80,29.94,5.0,SW,3.5,-,N/A,,Haze,220,2013-02-17 17:53:00
10:58 AM,27.5,21.7,79,29.99,5.0,WSW,4.6,-,N/A,,Haze,240,2013-02-17 17:58:00
11:18 AM,28.4,21.2,74,29.94,4.0,SW,4.6,-,N/A,,Haze,220,2013-02-17 18:18:00
11:28 AM,28.4,21.2,74,29.94,5.0,SW,5.8,-,N/A,,Haze,230,2013-02-17 18:28:00
11:43 AM,30.2,21.2,69,29.94,6.0,SW,5.8,-,N/A,,Haze,220,2013-02-17 18:43:00
11:48 AM,30.2,21.2,69,29.94,6.0,SW,5.8,-,N/A,,Haze,230,2013-02-17 18:48:00
11:58 AM,30.0,21.7,71,29.99,7.0,SW,4.6,-,N/A,,Mostly Cloudy,230,2013-02-17 18:58:00
12:23 PM,32.0,23.0,69,29.94,7.0,WSW,3.5,-,N/A,,Scattered Clouds,250,2013-02-17 19:23:00
12:58 PM,32.0,22.6,68,29.97,9.0,WSW,6.9,-,N/A,,Partly Cloudy,240,2013-02-17 19:58:00
1:48 PM,32.0,23.0,69,29.93,10.0,WSW,8.1,-,N/A,,Mostly Cloudy,250,2013-02-17 20:48:00
1:58 PM,32.0,22.3,67,29.97,10.0,West,6.9,-,N/A,,Mostly Cloudy,260,2013-02-17 20:58:00
2:38 PM,32.0,21.2,64,29.93,10.0,West,6.9,-,N/A,,Mostly Cloudy,260,2013-02-17 21:38:00
2:43 PM,32.0,21.2,64,29.93,10.0,WNW,6.9,-,N/A,,Overcast,290,2013-02-17 21:43:00
2:46 PM,33.8,19.4,56,29.93,10.0,NNW,4.6,-,N/A,,Overcast,330,2013-02-17 21:46:00
2:56 PM,33.8,17.6,52,29.93,10.0,WNW,8.1,-,N/A,,Overcast,300,2013-02-17 21:56:00
2:58 PM,33.8,15.8,48,29.97,10.0,NW,6.9,-,0.00,,Overcast,310,2013-02-17 21:58:00
3:53 PM,33.8,12.2,41,29.95,10.0,NW,9.2,-,N/A,,Mostly Cloudy,320,2013-02-17 22:53:00
3:58 PM,34.7,12.9,41,29.99,10.0,NW,8.1,-,N/A,,Overcast,320,2013-02-17 22:58:00
4:13 PM,32.0,12.2,44,29.96,10.0,NW,5.8,-,N/A,,Overcast,320,2013-02-17 23:13:00
4:18 PM,32.0,14.0,48,29.96,10.0,NW,5.8,-,N/A,,Overcast,310,2013-02-17 23:18:00
4:23 PM,33.8,14.0,44,29.96,10.0,NW,8.1,-,N/A,,Mostly Cloudy,310,2013-02-17 23:23:00
4:28 PM,33.8,14.0,44,29.96,10.0,NW,6.9,-,N/A,,Mostly Cloudy,320,2013-02-17 23:28:00
4:33 PM,33.8,12.2,41,29.96,10.0,WNW,6.9,-,N/A,,Overcast,300,2013-02-17 23:33:00
4:58 PM,33.8,12.9,42,30.01,10.0,NW,6.9,-,N/A,,Mostly Cloudy,310,2013-02-17 23:58:00
5:03 PM,32.0,14.0,48,29.97,10.0,NNW,8.1,-,N/A,,Scattered Clouds,340,2013-02-18 00:03:00
5:58 PM,32.4,13.8,46,30.04,10.0,North,5.8,-,N/A,,Clear,350,2013-02-18 00:58:00
6:33 PM,32.0,14.0,48,30.00,10.0,NNW,2.3,-,N/A,,Mostly Cloudy,340,2013-02-18 01:33:00
6:58 PM,30.4,14.7,52,30.06,10.0,West,3.5,-,N/A,,Mostly Cloudy,280,2013-02-18 01:58:00
7:18 PM,30.2,15.8,55,30.01,10.0,SW,3.5,-,N/A,,Scattered Clouds,220,2013-02-18 02:18:00
7:38 PM,28.4,15.8,59,30.02,10.0,SW,2.3,-,N/A,,Mostly Cloudy,230,2013-02-18 02:38:00
7:48 PM,28.4,17.6,64,30.02,10.0,WSW,3.5,-,N/A,,Mostly Cloudy,250,2013-02-18 02:48:00
7:53 PM,28.4,17.6,64,30.03,10.0,WSW,3.5,-,N/A,,Mostly Cloudy,240,2013-02-18 02:53:00
7:58 PM,28.8,16.7,61,30.09,10.0,SW,3.5,-,N/A,,Mostly Cloudy,230,2013-02-18 02:58:00
8:23 PM,26.6,17.6,69,30.03,10.0,SSE,4.6,-,N/A,,Mostly Cloudy,150,2013-02-18 03:23:00
8:43 PM,28.4,17.6,64,30.03,10.0,South,3.5,-,N/A,Snow,Light Snow,180,2013-02-18 03:43:00
8:58 PM,28.0,18.3,67,30.10,10.0,SSE,2.3,-,0.00,Snow,Light Snow,150,2013-02-18 03:58:00
9:03 PM,28.4,17.6,64,30.03,10.0,SSE,2.3,-,N/A,Snow,Light Snow,150,2013-02-18 04:03:00
9:10 PM,26.6,17.6,69,30.04,10.0,East,4.6,-,N/A,,Partly Cloudy,90,2013-02-18 04:10:00
9:58 PM,28.8,17.1,62,30.11,10.0,Calm,Calm,-,0.00,,Scattered Clouds,0,2013-02-18 04:58:00
10:28 PM,28.4,15.8,59,30.05,10.0,SW,1.2,-,N/A,,Mostly Cloudy,230,2013-02-18 05:28:00
10:53 PM,24.8,15.8,69,30.05,10.0,SSW,2.3,-,N/A,,Scattered Clouds,210,2013-02-18 05:53:00
10:58 PM,23.5,13.8,66,30.12,10.0,SW,2.3,-,N/A,,Mostly Cloudy,220,2013-02-18 05:58:00
11:13 PM,24.8,15.8,69,30.06,10.0,SW,4.6,-,N/A,,Scattered Clouds,230,2013-02-18 06:13:00
11:58 PM,23.5,16.9,76,30.14,10.0,South,3.5,-,N/A,,Clear,170,2013-02-18 06:58:00